SCP
0 0 0 0 0 0 0 0 0 0 0 0 0 0 0 0 0 0 0 0 -0 -0 -0 0 0 0 0 0 0 0 0 0
0 0 0 0 0 0 0 0 0 0 0 0 0 0 0 0 0 0 0 0 0 0 0 0 0 0 0 0 0 0 0 0
0 0 0 0 0 0 0 0 0 0 0 0 0 0 0 0 0 0 0 0 0 0 0 0 0 0 0 0 0 0 0 0
0 0 0 0 0 0 0 0 0 0 0 0 0 0 0 0 0 0 0 0 0 0 0 0 0 0 0 0 0 0 0 0
0 0 0 0 0 0 0 0 0 0 0 0 0 0 0 0 0 0 0 0 0 0 0 0 0 0 0 0 0 0 0 0
0 0 0 0 0 0 0 0 0 0 0 0 0 0 0 0 0 0 0 0 0 0 0 0 0 0 0 0 0 0 0 0
0 0 0 0 0 0 0 0 0 0 0 0 0 0 0 0 0 0 0 0 0 0 0 0 0 0 0 0 0 -0 0 0
0 0 0 0 0 0 0 0 0 0 0 0 0 0 0 0 0 0 0 0 0 0 0 0 0 0 0 0 0 0 0 0
0 0 0 0 0 0 0 0 0 0 0 0 0 0 0 0 0 0 0 0 0 0 0 0 0 0 0 0 0 0 0 0
0 0 0 0 0 0 0 0 0 0 0 0 0 0 0 0 0 0 0 0 0 -0 0 0 0 0 0 0 0 0 0 0
0 0 0 0 0 0 0 0 0 0 0 0 0 0 0 0 0 0 -0 -0 -0 -0 -0 -0 -0 -0 -0 -0 -0 0 0 0
0 0 0 0 0 0 0 0 0 0 0 0 0 0 0 -0 -0 -0 -0 -0 -0 -0 -0 -0 -0 -0 -0 -0 -0 -0 0 0
0 0 0 0 0 0 0 0 0 0 0 0 0 0 0 0 0 0 0 0 0 0 0 0 -0 -0 -0 -0 -0 0 0 0
0 0 0 0 0 0 0 0 0 0 0 0 0 0 0 0 0 0 0 0 0 0 0 0 -0 -0 -0 0 0 0 0 0
0 0 0 0 0 0 0 0 0 0 0 0 0 0 0 0 0 0 0 0 0 0 0 0 0 -0 -0 0 0 0 0 0
0 0 0 0 0 0 0 0 0 0 0 0 0 0 0 0 0 0 0 0 0 0 0 0 -0 -0 0 0 0 0 0 0
0 0 0 0 0 0 0 0 0 0 0 0 0 0 0 0 0 0 0 0 0 0 0 0 0 0 0 0 0 0 0 0
0 0 0 0 0 0 0 0 0 0 0 0 0 0 0 0 0 0 0 0 0 0 0 0 0 0 0 0 0 0 0 0
0 0 0 0 0 0 0 0 0 0 0 0 0 0 0 0 0 0 0 0 0 0 0 0 0 0 0 -0 0 0 0 0
Wind_Speed_500mb
9 5 6 6 4 7 15 5 7 4 4 6 19 20 24 30 36 42 40 26 24 3 9 14 14 12 11 14 17 21 30 35
5 6 15 6 10 6 7 8 4 5 6 9 16 16 16 20 16 13 22 24 20 16 17 24 22 19 13 5 3 7 12 18
7 11 1 7 5 14 11 6 9 5 3 10 5 7 13 26 34 29 17 15 21 32 28 22 14 11 11 10 12 13 13 14
4 4 5 3 5 7 10 6 3 7 3 7 9 15 30 34 46 48 52 50 43 31 25 19 15 12 11 17 21 28 33 38
12 12 8 11 6 9 7 7 5 10 7 6 18 27 33 47 46 43 38 37 30 24 18 13 9 12 16 20 27 33 40 47
13 9 6 4 9 6 8 7 11 8 15 8 8 14 30 41 37 33 30 25 19 15 19 22 27 33 38 40 43 48 53 58
7 7 4 4 3 10 4 7 5 14 10 12 9 14 23 26 25 25 27 27 30 34 37 41 46 51 54 58 63 68 73 76
5 9 7 6 15 10 11 10 15 28 12 10 25 26 21 21 19 22 25 30 36 40 45 51 57 63 68 71 74 78 83 87
4 7 7 6 10 4 6 8 17 20 11 18 10 16 13 11 12 21 28 34 38 41 45 52 58 62 71 79 86 87 91 90
5 5 4 11 6 16 17 12 12 19 14 21 16 11 14 8 6 26 29 29 30 33 37 39 44 50 59 62 65 73 83 90
8 6 3 6 10 4 8 2 2 13 19 17 12 10 14 20 12 25 16 17 24 29 33 43 55 65 71 77 77 75 69 76
4 9 12 12 7 13 11 4 27 21 22 15 10 3 10 16 18 7 10 17 25 32 40 51 63 69 73 74 76 75 65 61
5 4 8 10 10 17 8 12 44 39 32 27 12 13 6 10 8 3 9 12 21 30 43 55 70 79 77 75 73 68 66 71
5 6 6 17 11 14 11 10 48 45 36 29 19 15 12 14 11 7 9 13 24 35 47 54 71 76 71 77 75 74 71 73
11 9 5 19 7 11 14 18 41 41 34 26 21 16 14 15 14 13 20 21 25 37 50 59 61 57 67 71 79 72 71 85
6 3 7 11 12 13 19 17 29 32 28 25 18 15 17 17 13 14 12 16 27 40 53 52 43 45 66 70 67 69 86 90
1 7 9 24 26 21 25 21 23 26 22 17 17 16 20 17 12 12 16 23 33 47 54 52 41 36 54 72 69 74 84 103
10 20 13 11 11 30 33 33 28 26 25 23 17 18 21 17 17 19 24 30 39 47 48 44 43 48 60 60 71 72 87 97
2 7 26 16 11 17 35 36 30 30 27 17 13 14 16 15 18 26 28 36 45 43 49 58 60 61 56 66 70 74 72 85
Wind_Direction_500mb
54 61 99 168 83 166 106 4 74 251 118 91 24 43 59 89 119 143 171 195 223 254 151 182 190 218 246 259 264 271 266 270
335 86 39 114 145 68 16 131 133 20 66 344 356 12 38 47 88 142 187 217 217 188 130 108 120 124 129 129 79 325 311 299
46 22 230 1 39 53 109 102 144 130 262 1 41 31 77 79 92 98 127 163 161 157 136 129 102 78 51 36 19 6 353 331
125 321 269 99 108 127 119 207 72 125 265 358 44 40 80 76 94 92 90 93 105 99 97 89 67 36 2 346 339 330 324 321
356 352 5 43 37 109 105 100 190 128 222 94 76 68 79 86 93 87 86 86 85 89 69 49 9 336 326 321 318 313 310 308
181 183 173 7 357 85 108 109 165 190 150 150 90 78 74 82 78 75 65 53 42 22 359 338 326 319 312 307 303 302 300 299
70 26 122 91 349 338 84 141 138 169 122 170 154 121 86 79 63 46 27 10 355 341 330 321 313 306 299 294 292 290 289 288
56 6 24 74 12 50 60 110 69 117 108 148 130 121 100 80 56 27 0 341 332 326 318 312 307 303 298 293 289 287 284 284
192 349 34 9 341 359 65 33 144 149 185 144 144 141 132 101 40 360 341 333 329 323 317 312 310 308 303 299 296 291 289 287
136 38 161 283 323 107 104 57 97 107 124 141 147 171 172 183 356 345 333 331 334 342 347 345 342 340 330 323 312 300 290 285
111 71 146 340 255 199 120 260 200 137 151 148 121 151 243 240 272 315 328 359 7 8 4 356 350 339 331 326 321 312 299 295
109 128 190 234 213 168 129 304 201 181 170 159 132 121 258 220 265 325 25 12 8 0 355 348 346 339 338 337 331 325 319 311
127 141 279 242 162 149 97 238 185 195 191 186 185 222 287 287 304 339 353 359 353 353 350 349 346 341 335 333 332 324 316 311
91 98 244 174 125 159 206 179 189 195 200 205 233 257 263 262 259 279 333 342 342 345 345 342 343 343 340 334 326 323 320 317
165 212 242 186 207 210 194 189 192 200 201 212 228 251 261 261 277 293 324 339 345 337 334 344 344 350 341 343 339 330 326 333
82 269 230 213 216 217 207 203 198 202 207 215 237 252 256 255 288 323 338 336 332 327 329 332 347 355 350 342 340 341 342 337
336 268 261 241 233 231 214 214 203 204 214 228 241 261 265 266 270 309 320 325 325 325 329 328 308 327 345 349 351 347 345 349
217 203 191 232 258 235 224 228 225 219 220 226 241 269 273 277 289 299 305 316 321 325 328 317 327 327 322 336 337 344 346 352
189 241 228 244 254 243 237 232 223 224 220 222 249 264 266 285 293 299 308 319 326 324 319 321 320 312 334 325 330 338 341 354
Wind_Speed_850mb
9 5 6 6 4 7 15 5 7 4 4 6 19 20 24 30 36 42 40 26 24 3 9 14 14 12 11 14 17 21 30 35
5 6 15 6 10 6 7 8 4 5 6 9 16 16 16 20 16 13 22 24 20 16 17 24 22 19 13 5 3 7 12 18
7 11 1 7 5 14 11 6 9 5 3 10 5 7 13 26 34 29 17 15 21 32 28 22 14 11 11 10 12 13 13 14
4 4 5 3 5 7 10 6 3 7 3 7 9 15 30 34 46 48 52 50 43 31 25 19 15 12 11 17 21 28 33 38
12 12 8 11 6 9 7 7 5 10 7 6 18 27 33 47 46 43 38 37 30 24 18 13 9 12 16 20 27 33 40 47
13 9 6 4 9 6 8 7 11 8 15 8 8 14 30 41 37 33 30 25 19 15 19 22 27 33 38 40 43 48 53 58
7 7 4 4 3 10 4 7 5 14 10 12 9 14 23 26 25 25 27 27 30 34 37 41 46 51 54 58 63 68 73 76
5 9 7 6 15 10 11 10 15 28 12 10 25 26 21 21 19 22 25 30 36 40 45 51 57 63 68 71 74 78 83 87
4 7 7 6 10 4 6 8 17 20 11 18 10 16 13 11 12 21 28 34 38 41 45 52 58 62 71 79 86 87 91 90
5 5 4 11 6 16 17 12 12 19 14 21 16 11 14 8 6 26 29 29 30 33 37 39 44 50 59 62 65 73 83 90
8 6 3 6 10 4 8 2 2 13 19 17 12 10 14 20 12 25 16 17 24 29 33 43 55 65 71 77 77 75 69 76
4 9 12 12 7 13 11 4 27 21 22 15 10 3 10 16 18 7 10 17 25 32 40 51 63 69 73 74 76 75 65 61
5 4 8 10 10 17 8 12 44 39 32 27 12 13 6 10 8 3 9 12 21 30 43 55 70 79 77 75 73 68 66 71
5 6 6 17 11 14 11 10 48 45 36 29 19 15 12 14 11 7 9 13 24 35 47 54 71 76 71 77 75 74 71 73
11 9 5 19 7 11 14 18 41 41 34 26 21 16 14 15 14 13 20 21 25 37 50 59 61 57 67 71 79 72 71 85
6 3 7 11 12 13 19 17 29 32 28 25 18 15 17 17 13 14 12 16 27 40 53 52 43 45 66 70 67 69 86 90
1 7 9 24 26 21 25 21 23 26 22 17 17 16 20 17 12 12 16 23 33 47 54 52 41 36 54 72 69 74 84 103
10 20 13 11 11 30 33 33 28 26 25 23 17 18 21 17 17 19 24 30 39 47 48 44 43 48 60 60 71 72 87 97
2 7 26 16 11 17 35 36 30 30 27 17 13 14 16 15 18 26 28 36 45 43 49 58 60 61 56 66 70 74 72 85
Wind_Direction_850mb
54 61 99 168 83 166 106 4 74 251 118 91 24 43 59 89 119 143 171 195 223 254 151 182 190 218 246 259 264 271 266 270
335 86 39 114 145 68 16 131 133 20 66 344 356 12 38 47 88 142 187 217 217 188 130 108 120 124 129 129 79 325 311 299
46 22 230 1 39 53 109 102 144 130 262 1 41 31 77 79 92 98 127 163 161 157 136 129 102 78 51 36 19 6 353 331
125 321 269 99 108 127 119 207 72 125 265 358 44 40 80 76 94 92 90 93 105 99 97 89 67 36 2 346 339 330 324 321
356 352 5 43 37 109 105 100 190 128 222 94 76 68 79 86 93 87 86 86 85 89 69 49 9 336 326 321 318 313 310 308
181 183 173 7 357 85 108 109 165 190 150 150 90 78 74 82 78 75 65 53 42 22 359 338 326 319 312 307 303 302 300 299
70 26 122 91 349 338 84 141 138 169 122 170 154 121 86 79 63 46 27 10 355 341 330 321 313 306 299 294 292 290 289 288
56 6 24 74 12 50 60 110 69 117 108 148 130 121 100 80 56 27 0 341 332 326 318 312 307 303 298 293 289 287 284 284
192 349 34 9 341 359 65 33 144 149 185 144 144 141 132 101 40 360 341 333 329 323 317 312 310 308 303 299 296 291 289 287
136 38 161 283 323 107 104 57 97 107 124 141 147 171 172 183 356 345 333 331 334 342 347 345 342 340 330 323 312 300 290 285
111 71 146 340 255 199 120 260 200 137 151 148 121 151 243 240 272 315 328 359 7 8 4 356 350 339 331 326 321 312 299 295
109 128 190 234 213 168 129 304 201 181 170 159 132 121 258 220 265 325 25 12 8 0 355 348 346 339 338 337 331 325 319 311
127 141 279 242 162 149 97 238 185 195 191 186 185 222 287 287 304 339 353 359 353 353 350 349 346 341 335 333 332 324 316 311
91 98 244 174 125 159 206 179 189 195 200 205 233 257 263 262 259 279 333 342 342 345 345 342 343 343 340 334 326 323 320 317
165 212 242 186 207 210 194 189 192 200 201 212 228 251 261 261 277 293 324 339 345 337 334 344 344 350 341 343 339 330 326 333
82 269 230 213 216 217 207 203 198 202 207 215 237 252 256 255 288 323 338 336 332 327 329 332 347 355 350 342 340 341 342 337
336 268 261 241 233 231 214 214 203 204 214 228 241 261 265 266 270 309 320 325 325 325 329 328 308 327 345 349 351 347 345 349
217 203 191 232 258 235 224 228 225 219 220 226 241 269 273 277 289 299 305 316 321 325 328 317 327 327 322 336 337 344 346 352
189 241 228 244 254 243 237 232 223 224 220 222 249 264 266 285 293 299 308 319 326 324 319 321 320 312 334 325 330 338 341 354